,,PA_Meas_PMT16A,,PR_Meas_QMR101_102,,RH_Meas_QMH101,,SR_Meas_QMS101,,TA_Meas_QMH101,,GenWind,,GenWind,
time,status,PA,status,PR,status,RH,status,SR,status,TA,status,DirAvg,status,SpdAvg,
2015-03-10, 07:16:04,VALID,918.659,VALID,0,VALID,89.8801,VALID,110.02,VALID,18.6708,VALID,145,VALID,1.44414,
2015-03-10, 07:17:04,VALID,918.67,VALID,0,VALID,89.5218,VALID,110.879,VALID,18.7683,VALID,153,VALID,1.32695,
2015-03-10, 07:18:04,VALID,918.699,VALID,0,VALID,88.5307,VALID,113.35,VALID,18.8853,VALID,147,VALID,1.26016,
2015-03-10, 07:19:04,VALID,918.721,VALID,0,VALID,88.3554,VALID,117.97,VALID,18.9828,VALID,130,VALID,0.744531,
2015-03-10, 07:20:04,VALID,918.729,VALID,0,VALID,87.8446,VALID,121.516,VALID,19.0608,VALID,160,VALID,1.31797,
2015-03-10, 07:21:04,VALID,918.745,VALID,0,VALID,87.2271,VALID,124.202,VALID,19.1388,VALID,145,VALID,1.13633,
2015-03-10, 07:22:04,VALID,918.732,VALID,0,VALID,86.7392,VALID,125.706,VALID,19.2558,VALID,141,VALID,1.28164,
2015-03-10, 07:23:04,VALID,918.74,VALID,0,VALID,86.3657,VALID,130.111,VALID,19.3533,VALID,138,VALID,0.925391,
2015-03-10, 07:24:04,VALID,918.732,VALID,0,VALID,86.3047,VALID,135.591,VALID,19.4508,VALID,123,VALID,0,
2015-03-10, 07:25:04,VALID,918.72,VALID,0,VALID,86.4495,VALID,139.351,VALID,19.5873,VALID,119,VALID,0,
2015-03-10, 07:26:04,VALID,918.721,VALID,0,VALID,86.2437,VALID,138.814,VALID,19.6653,VALID,115,VALID,0,
2015-03-10, 07:27:04,VALID,918.737,VALID,0,VALID,86.2666,VALID,142.574,VALID,19.7823,VALID,114,VALID,0,
2015-03-10, 07:28:04,VALID,918.74,VALID,0,VALID,85.5728,VALID,149.666,VALID,19.8798,VALID,113,VALID,0,
2015-03-10, 07:29:04,VALID,918.746,VALID,0,VALID,85.6567,VALID,152.781,VALID,19.9758,VALID,112,VALID,0,
2015-03-10, 07:30:04,VALID,918.77,VALID,0,VALID,84.8562,VALID,156.112,VALID,20.1318,VALID,114,VALID,0,
2015-03-10, 07:31:04,VALID,918.766,VALID,0,VALID,84.3607,VALID,155.897,VALID,20.3284,VALID,113,VALID,0,
2015-03-10, 07:32:04,VALID,918.794,VALID,0,VALID,84.0558,VALID,156.864,VALID,20.5219,VALID,113,VALID,0,
2015-03-10, 07:33:04,VALID,918.841,VALID,0,VALID,83.1486,VALID,162.451,VALID,20.717,VALID,113,VALID,0,
2015-03-10, 07:34:04,VALID,918.851,VALID,0,VALID,81.9517,VALID,165.782,VALID,20.9511,VALID,113,VALID,0,
2015-03-10, 07:35:04,VALID,918.841,VALID,0,VALID,81.7154,VALID,168.145,VALID,21.0291,VALID,112,VALID,0,
2015-03-10, 07:36:04,VALID,918.876,VALID,0,VALID,81.7611,VALID,170.079,VALID,21.0486,VALID,112,VALID,0,
2015-03-10, 07:37:04,VALID,918.874,VALID,0,VALID,82.9199,VALID,173.195,VALID,21.1461,VALID,102,VALID,0,
2015-03-10, 07:38:04,VALID,918.911,VALID,0,VALID,81.9975,VALID,176.096,VALID,21.1852,VALID,58,VALID,0,
2015-03-10, 07:39:04,VALID,918.911,VALID,0,VALID,82.2414,VALID,178.89,VALID,20.9706,VALID,83,VALID,0.309766,
2015-03-10, 07:40:04,VALID,918.932,VALID,0,VALID,82.2033,VALID,182.328,VALID,20.7365,VALID,92,VALID,1.40859,
2015-03-10, 07:41:04,VALID,918.958,VALID,0,VALID,83.3087,VALID,185.121,VALID,20.5414,VALID,90,VALID,1.07383,
2015-03-10, 07:42:04,VALID,918.953,VALID,0,VALID,84.8181,VALID,187.592,VALID,20.3643,VALID,71,VALID,0.0277344,
2015-03-10, 07:43:04,VALID,918.941,VALID,0,VALID,85.1688,VALID,190.386,VALID,20.2278,VALID,84,VALID,0.344531,
2015-03-10, 07:44:04,VALID,918.985,VALID,0,VALID,85.4966,VALID,191.997,VALID,20.1693,VALID,92,VALID,0,
2015-03-10, 07:45:04,VALID,919.005,VALID,0,VALID,86.3809,VALID,195.006,VALID,20.1318,VALID,103,VALID,0,
2015-03-10, 07:46:04,VALID,918.997,VALID,0,VALID,87.2195,VALID,198.874,VALID,20.1693,VALID,86,VALID,0,
2015-03-10, 07:47:04,VALID,918.992,VALID,0,VALID,86.1446,VALID,199.948,VALID,20.1888,VALID,79,VALID,0,
2015-03-10, 07:48:04,VALID,919.009,VALID,0,VALID,85.9159,VALID,200.27,VALID,20.2863,VALID,61,VALID,0,
2015-03-10, 07:49:04,VALID,918.99,VALID,0,VALID,85.6415,VALID,203.386,VALID,20.3448,VALID,44,VALID,0,
2015-03-10, 07:50:04,VALID,919.015,VALID,0,VALID,84.5589,VALID,206.502,VALID,20.4423,VALID,41,VALID,1.47305,
2015-03-10, 07:51:04,VALID,919.038,VALID,0,VALID,85.1688,VALID,211.122,VALID,20.4993,VALID,70,VALID,0.817969,
2015-03-10, 07:52:04,VALID,919.037,VALID,0,VALID,84.6809,VALID,216.064,VALID,20.6553,VALID,71,VALID,0.79375,
2015-03-10, 07:53:04,VALID,919.026,VALID,0,VALID,82.6302,VALID,218.965,VALID,20.7138,VALID,96,VALID,0.611328,
2015-03-10, 07:54:04,VALID,919.048,VALID,0,VALID,82.3558,VALID,222.081,VALID,20.873,VALID,130,VALID,0.527344,
2015-03-10, 07:55:04,VALID,919.095,VALID,0,VALID,81.9593,VALID,221.651,VALID,20.9885,VALID,130,VALID,0.425,
2015-03-10, 07:56:04,VALID,919.081,VALID,0,VALID,81.6315,VALID,224.552,VALID,21.2421,VALID,130,VALID,0,
2015-03-10, 07:57:04,VALID,919.095,VALID,0,VALID,79.9086,VALID,224.767,VALID,21.4762,VALID,130,VALID,0.114063,
2015-03-10, 07:58:04,VALID,919.095,VALID,0,VALID,80.3813,VALID,220.039,VALID,21.7298,VALID,126,VALID,0.512891,
2015-03-10, 07:59:04,VALID,919.126,VALID,0,VALID,78.2086,VALID,225.841,VALID,21.9249,VALID,123,VALID,0,
2015-03-10, 08:00:04,VALID,919.126,VALID,0,VALID,78.3077,VALID,236.478,VALID,21.964,VALID,123,VALID,0,
2015-03-10, 08:01:04,VALID,919.102,VALID,0,VALID,78.0638,VALID,244.429,VALID,21.964,VALID,116,VALID,0,
2015-03-10, 08:02:04,VALID,919.125,VALID,0,VALID,77.1795,VALID,249.908,VALID,21.9835,VALID,113,VALID,0,
2015-03-10, 08:03:04,VALID,919.112,VALID,0,VALID,79.0243,VALID,259.255,VALID,22.0225,VALID,87,VALID,0,
2015-03-10, 08:04:04,VALID,919.135,VALID,0,VALID,77.7588,VALID,260.115,VALID,22.1005,VALID,74,VALID,0,
2015-03-10, 08:05:04,VALID,919.145,VALID,0,VALID,77.1337,VALID,263.016,VALID,22.1396,VALID,86,VALID,0,
2015-03-10, 08:06:04,VALID,919.144,VALID,0,VALID,77.6369,VALID,270.429,VALID,22.2567,VALID,105,VALID,0,
2015-03-10, 08:07:04,VALID,919.143,VALID,0,VALID,76.7144,VALID,274.082,VALID,22.372,VALID,103,VALID,0,
2015-03-10, 08:08:04,VALID,919.206,VALID,0,VALID,75.7386,VALID,276.339,VALID,22.4891,VALID,127,VALID,0,
2015-03-10, 08:09:04,VALID,919.179,VALID,0,VALID,75.9445,VALID,283.645,VALID,22.5672,VALID,124,VALID,0,
2015-03-10, 08:10:04,VALID,919.187,VALID,0,VALID,70.9359,VALID,289.554,VALID,22.5281,VALID,91,VALID,0,
2015-03-10, 08:11:04,VALID,919.163,VALID,0,VALID,73.9853,VALID,293.744,VALID,22.5672,VALID,86,VALID,0,
2015-03-10, 08:12:04,VALID,919.185,VALID,0,VALID,74.4579,VALID,296.108,VALID,22.7445,VALID,74,VALID,0,
2015-03-10, 08:13:04,VALID,919.172,VALID,0,VALID,74.8924,VALID,299.761,VALID,22.8014,VALID,95,VALID,0,
2015-03-10, 08:14:04,VALID,919.196,VALID,0,VALID,73.0095,VALID,303.306,VALID,22.8777,VALID,96,VALID,0,
2015-03-10, 08:15:04,VALID,919.187,VALID,0,VALID,71.8431,VALID,307.174,VALID,22.9185,VALID,96,VALID,0,
2015-03-10, 08:16:04,VALID,919.179,VALID,0,VALID,75.1364,VALID,310.397,VALID,23.0728,VALID,81,VALID,0,
2015-03-10, 08:17:04,VALID,919.202,VALID,0,VALID,75.3651,VALID,315.017,VALID,23.268,VALID,68,VALID,0,
2015-03-10, 08:18:04,VALID,919.202,VALID,0,VALID,73.7413,VALID,318.133,VALID,23.2502,VALID,68,VALID,0,
2015-03-10, 08:19:04,VALID,919.204,VALID,0,VALID,71.4162,VALID,321.894,VALID,23.2307,VALID,1,VALID,0,
2015-03-10, 08:20:04,VALID,919.194,VALID,0,VALID,72.7731,VALID,324.687,VALID,23.3283,VALID,2,VALID,0,
2015-03-10, 08:21:04,VALID,919.227,VALID,0,VALID,73.7642,VALID,328.77,VALID,23.4259,VALID,27,VALID,0,
2015-03-10, 08:22:04,VALID,919.222,VALID,0,VALID,71.2866,VALID,331.778,VALID,23.5626,VALID,45,VALID,0,
2015-03-10, 08:23:04,VALID,919.221,VALID,0,VALID,70.1049,VALID,335.431,VALID,23.6797,VALID,48,VALID,0,
2015-03-10, 08:24:04,VALID,919.205,VALID,0,VALID,71.0121,VALID,337.688,VALID,23.6406,VALID,82,VALID,0,
2015-03-10, 08:25:04,VALID,919.219,VALID,0,VALID,71.5839,VALID,342.093,VALID,23.6406,VALID,41,VALID,0,
2015-03-10, 08:26:04,VALID,919.221,VALID,0,VALID,70.8596,VALID,344.671,VALID,23.6992,VALID,44,VALID,0,
2015-03-10, 08:27:04,VALID,919.209,VALID,0,VALID,70.0135,VALID,347.035,VALID,23.756,VALID,46,VALID,0,
2015-03-10, 08:28:04,VALID,919.239,VALID,0,VALID,66.6515,VALID,351.547,VALID,23.756,VALID,84,VALID,0,
2015-03-10, 08:29:04,VALID,919.264,VALID,0,VALID,70.2955,VALID,354.878,VALID,23.834,VALID,85,VALID,0,
2015-03-10, 08:30:04,VALID,919.242,VALID,0,VALID,71.5,VALID,358.209,VALID,23.8358,VALID,84,VALID,0,
2015-03-10, 08:31:04,VALID,919.245,VALID,0,VALID,71.8354,VALID,361.862,VALID,23.8731,VALID,85,VALID,0,
2015-03-10, 08:32:04,VALID,919.257,VALID,0,VALID,71.3171,VALID,365.515,VALID,23.9902,VALID,84,VALID,0,
2015-03-10, 08:33:04,VALID,919.295,VALID,0,VALID,69.4646,VALID,368.953,VALID,24.0878,VALID,85,VALID,0,
2015-03-10, 08:34:04,VALID,919.288,VALID,0,VALID,70.57,VALID,372.391,VALID,24.0683,VALID,85,VALID,0,
2015-03-10, 08:35:04,VALID,919.281,VALID,0,VALID,70.204,VALID,375.829,VALID,24.1269,VALID,85,VALID,0,
2015-03-10, 08:36:04,VALID,919.305,VALID,0,VALID,70.1126,VALID,379.16,VALID,24.2226,VALID,85,VALID,0,
2015-03-10, 08:37:04,VALID,919.322,VALID,0,VALID,67.6654,VALID,383.135,VALID,24.1073,VALID,115,VALID,0,
2015-03-10, 08:38:04,VALID,919.337,VALID,0,VALID,67.3681,VALID,386.143,VALID,23.9902,VALID,115,VALID,0,
2015-03-10, 08:39:04,VALID,919.308,VALID,0,VALID,67.1547,VALID,390.763,VALID,24.1269,VALID,115,VALID,0,
2015-03-10, 08:40:04,VALID,919.343,VALID,0,VALID,66.4076,VALID,394.202,VALID,24.2245,VALID,115,VALID,0,
2015-03-10, 08:41:04,VALID,919.354,VALID,0,VALID,65.7443,VALID,397.317,VALID,24.3593,VALID,115,VALID,0,
2015-03-10, 08:42:04,VALID,919.345,VALID,0,VALID,66.0188,VALID,400.648,VALID,24.5564,VALID,115,VALID,0,
2015-03-10, 08:43:04,VALID,919.328,VALID,0,VALID,65.6224,VALID,403.549,VALID,24.6326,VALID,118,VALID,0,
2015-03-10, 08:44:04,VALID,919.365,VALID,0,VALID,63.9376,VALID,408.061,VALID,24.7907,VALID,118,VALID,0,
2015-03-10, 08:45:04,VALID,919.368,VALID,0,VALID,64.8219,VALID,411.285,VALID,24.7107,VALID,118,VALID,0,
2015-03-10, 08:46:04,VALID,919.368,VALID,0,VALID,64.517,VALID,414.723,VALID,24.8297,VALID,117,VALID,0,
2015-03-10, 08:47:04,VALID,919.352,VALID,0,VALID,64.2502,VALID,418.268,VALID,24.693,VALID,118,VALID,0,
2015-03-10, 08:48:04,VALID,919.366,VALID,0,VALID,65.2412,VALID,421.492,VALID,24.5759,VALID,82,VALID,0,
2015-03-10, 08:49:04,VALID,919.371,VALID,0,VALID,65.2031,VALID,424.715,VALID,24.5954,VALID,175,VALID,0,
2015-03-10, 08:50:04,VALID,919.375,VALID,0,VALID,64.1129,VALID,428.26,VALID,24.654,VALID,179,VALID,0,
2015-03-10, 08:51:04,VALID,919.358,VALID,0,VALID,64.8905,VALID,431.376,VALID,24.5759,VALID,190,VALID,0,
2015-03-10, 08:52:04,VALID,919.359,VALID,0,VALID,63.0075,VALID,434.17,VALID,24.693,VALID,194,VALID,0,
2015-03-10, 08:53:04,VALID,919.368,VALID,0,VALID,64.4407,VALID,437.393,VALID,24.7321,VALID,194,VALID,0,
2015-03-10, 08:54:04,VALID,919.352,VALID,0,VALID,66.4,VALID,440.724,VALID,24.4783,VALID,163,VALID,0,
2015-03-10, 08:55:04,VALID,919.371,VALID,0,VALID,66.156,VALID,443.839,VALID,24.4587,VALID,163,VALID,0,
2015-03-10, 08:56:04,VALID,919.369,VALID,0,VALID,67.2995,VALID,446.848,VALID,24.4587,VALID,142,VALID,0,
2015-03-10, 08:57:04,VALID,919.371,VALID,0,VALID,66.865,VALID,450.178,VALID,24.244,VALID,136,VALID,0,
2015-03-10, 08:58:04,VALID,919.393,VALID,0,VALID,68.1152,VALID,452.65,VALID,24.1659,VALID,142,VALID,0,
2015-03-10, 08:59:04,VALID,919.364,VALID,0,VALID,68.5116,VALID,456.947,VALID,24.1445,VALID,128,VALID,0,
2015-03-10, 09:00:04,VALID,919.405,VALID,0,VALID,70.0439,VALID,458.666,VALID,24.086,VALID,143,VALID,1.14375,
2015-03-10, 09:01:04,VALID,919.388,VALID,0,VALID,68.4507,VALID,463.286,VALID,24.1854,VALID,155,VALID,0.521875,
2015-03-10, 09:02:04,VALID,919.408,VALID,0,VALID,67.5053,VALID,465.865,VALID,24.2226,VALID,180,VALID,0.926953,
2015-03-10, 09:03:04,VALID,919.407,VALID,0,VALID,67.4596,VALID,469.41,VALID,24.4392,VALID,180,VALID,0.195313,
2015-03-10, 09:04:04,VALID,919.449,VALID,0,VALID,66.1179,VALID,472.204,VALID,24.4764,VALID,166,VALID,1.21445,
2015-03-10, 09:05:04,VALID,919.444,VALID,0,VALID,64.7076,VALID,474.997,VALID,24.5759,VALID,166,VALID,0.590625,
2015-03-10, 09:06:04,VALID,919.424,VALID,0,VALID,64.8143,VALID,478.328,VALID,24.5155,VALID,183,VALID,0.775,
2015-03-10, 09:07:04,VALID,919.446,VALID,0,VALID,65.7672,VALID,481.014,VALID,24.574,VALID,155,VALID,1.04336,
2015-03-10, 09:08:04,VALID,919.421,VALID,0,VALID,66.8878,VALID,483.915,VALID,24.5545,VALID,151,VALID,1.17539,
2015-03-10, 09:09:04,VALID,919.452,VALID,0,VALID,66.987,VALID,487.675,VALID,24.5564,VALID,144,VALID,1.0082,
2015-03-10, 09:10:04,VALID,919.443,VALID,0,VALID,64.4789,VALID,489.932,VALID,24.7302,VALID,146,VALID,0,
2015-03-10, 09:11:04,VALID,919.447,VALID,0,VALID,65.5156,VALID,494.552,VALID,24.9255,VALID,148,VALID,0,
2015-03-10, 09:12:04,VALID,919.441,VALID,0,VALID,62.8246,VALID,496.7,VALID,24.9645,VALID,157,VALID,0,
2015-03-10, 09:13:04,VALID,919.419,VALID,0,VALID,62.1385,VALID,500.139,VALID,25.0036,VALID,147,VALID,0,
2015-03-10, 09:14:04,VALID,919.436,VALID,0,VALID,63.5488,VALID,503.577,VALID,25.0621,VALID,179,VALID,0,
2015-03-10, 09:15:04,VALID,919.389,VALID,0,VALID,61.7725,VALID,506.263,VALID,25.1422,VALID,180,VALID,0,
2015-03-10, 09:16:04,VALID,919.405,VALID,0,VALID,61.5362,VALID,509.593,VALID,25.1988,VALID,182,VALID,0,
2015-03-10, 09:17:04,VALID,919.406,VALID,0,VALID,62.2604,VALID,512.817,VALID,25.2769,VALID,183,VALID,0,
2015-03-10, 09:18:04,VALID,919.446,VALID,0,VALID,60.8272,VALID,515.61,VALID,25.3746,VALID,184,VALID,0,
2015-03-10, 09:19:04,VALID,919.434,VALID,0,VALID,62.0699,VALID,518.511,VALID,25.4722,VALID,184,VALID,0,
2015-03-10, 09:20:04,VALID,919.414,VALID,0,VALID,59.8362,VALID,522.271,VALID,25.607,VALID,184,VALID,0,
2015-03-10, 09:21:04,VALID,919.42,VALID,0,VALID,61.6582,VALID,524.635,VALID,25.687,VALID,183,VALID,0,
2015-03-10, 09:22:04,VALID,919.431,VALID,0,VALID,58.7918,VALID,528.288,VALID,25.8628,VALID,184,VALID,0,
2015-03-10, 09:23:04,VALID,919.44,VALID,0,VALID,57.572,VALID,531.834,VALID,25.9019,VALID,184,VALID,0,
2015-03-10, 09:24:04,VALID,919.449,VALID,0,VALID,58.7232,VALID,533.768,VALID,25.8433,VALID,180,VALID,0,
2015-03-10, 09:25:04,VALID,919.431,VALID,0,VALID,57.938,VALID,537.85,VALID,25.8413,VALID,160,VALID,0,
2015-03-10, 09:26:04,VALID,919.446,VALID,0,VALID,57.4119,VALID,541.718,VALID,25.8999,VALID,164,VALID,0,
2015-03-10, 09:27:04,VALID,919.415,VALID,0,VALID,59.1958,VALID,544.834,VALID,26.0171,VALID,190,VALID,0,
2015-03-10, 09:28:04,VALID,919.405,VALID,0,VALID,59.8209,VALID,546.983,VALID,26.2534,VALID,176,VALID,0,
2015-03-10, 09:29:04,VALID,919.422,VALID,0,VALID,55.5061,VALID,548.487,VALID,26.3511,VALID,180,VALID,0,
2015-03-10, 09:30:04,VALID,919.418,VALID,0,VALID,55.3689,VALID,549.669,VALID,26.5054,VALID,180,VALID,0,
2015-03-10, 09:31:04,VALID,919.436,VALID,0,VALID,56.3599,VALID,554.611,VALID,26.3511,VALID,165,VALID,0,
2015-03-10, 09:32:04,VALID,919.422,VALID,0,VALID,57.5797,VALID,556.545,VALID,26.4117,VALID,174,VALID,0,
2015-03-10, 09:33:04,VALID,919.412,VALID,0,VALID,57.6483,VALID,559.339,VALID,26.2534,VALID,249,VALID,0.206641,
2015-03-10, 09:34:04,VALID,919.404,VALID,0,VALID,58.7537,VALID,561.81,VALID,25.8042,VALID,248,VALID,1.11289,
2015-03-10, 09:35:04,VALID,919.404,VALID,0,VALID,57.4196,VALID,566.645,VALID,25.5503,VALID,249,VALID,0.451172,
2015-03-10, 09:36:04,VALID,919.404,VALID,0,VALID,57.5111,VALID,569.868,VALID,25.4507,VALID,244,VALID,0,
2015-03-10, 09:37:04,VALID,919.396,VALID,0,VALID,58.0066,VALID,572.446,VALID,25.6089,VALID,242,VALID,0,
2015-03-10, 09:38:04,VALID,919.419,VALID,0,VALID,60.3851,VALID,575.455,VALID,25.7066,VALID,249,VALID,0,
2015-03-10, 09:39:04,VALID,919.378,VALID,0,VALID,58.586,VALID,579.645,VALID,25.7261,VALID,238,VALID,0.791406,
2015-03-10, 09:40:04,VALID,919.426,VALID,0,VALID,56.2379,VALID,583.513,VALID,25.6284,VALID,249,VALID,1.25859,
2015-03-10, 09:41:04,VALID,919.407,VALID,0,VALID,56.8402,VALID,585.662,VALID,25.5093,VALID,252,VALID,0.343359,
2015-03-10, 09:42:04,VALID,919.413,VALID,0,VALID,56.8021,VALID,589.637,VALID,25.687,VALID,252,VALID,0.0503906,
2015-03-10, 09:43:04,VALID,919.418,VALID,0,VALID,57.3815,VALID,592.323,VALID,25.8823,VALID,254,VALID,0.684375,
2015-03-10, 09:44:04,VALID,919.392,VALID,0,VALID,58.8451,VALID,597.265,VALID,25.9019,VALID,292,VALID,0.716797,
2015-03-10, 09:45:04,VALID,919.393,VALID,0,VALID,56.7716,VALID,600.166,VALID,25.8433,VALID,292,VALID,1.0375,
2015-03-10, 09:46:04,VALID,919.354,VALID,0,VALID,57.2747,VALID,602.53,VALID,25.8022,VALID,292,VALID,0,
2015-03-10, 09:47:04,VALID,919.364,VALID,0,VALID,56.5657,VALID,605.216,VALID,25.9975,VALID,292,VALID,0,
2015-03-10, 09:48:04,VALID,919.348,VALID,0,VALID,55.5747,VALID,609.084,VALID,25.978,VALID,293,VALID,1.21914,
2015-03-10, 09:49:04,VALID,919.35,VALID,0,VALID,56.9545,VALID,611.77,VALID,25.8628,VALID,293,VALID,0.617188,
2015-03-10, 09:50:04,VALID,919.317,VALID,0,VALID,57.3281,VALID,614.563,VALID,25.8628,VALID,294,VALID,1.05391,
2015-03-10, 09:51:04,VALID,919.32,VALID,0,VALID,57.2442,VALID,617.142,VALID,25.8433,VALID,294,VALID,0.913281,
2015-03-10, 09:52:04,VALID,919.337,VALID,0,VALID,56.3904,VALID,620.795,VALID,25.8218,VALID,294,VALID,0.117188,
2015-03-10, 09:53:04,VALID,919.325,VALID,0,VALID,56.9927,VALID,623.051,VALID,25.9409,VALID,295,VALID,0.394922,
2015-03-10, 09:54:04,VALID,919.349,VALID,0,VALID,58.403,VALID,625.952,VALID,26.0972,VALID,294,VALID,0.493359,
2015-03-10, 09:55:04,VALID,919.353,VALID,0,VALID,59.0738,VALID,629.82,VALID,26.2144,VALID,283,VALID,0.840625,
2015-03-10, 09:56:04,VALID,919.385,VALID,0,VALID,54.1796,VALID,631.861,VALID,26.1928,VALID,316,VALID,0.998047,
2015-03-10, 09:57:04,VALID,919.383,VALID,0,VALID,55.75,VALID,634.44,VALID,26.0757,VALID,316,VALID,0.346484,
2015-03-10, 09:58:04,VALID,919.399,VALID,0,VALID,56.0245,VALID,636.159,VALID,26.0952,VALID,316,VALID,0.0273438,
2015-03-10, 09:59:04,VALID,919.408,VALID,0,VALID,55.468,VALID,639.49,VALID,26.3296,VALID,316,VALID,0,
2015-03-10, 10:00:04,VALID,919.389,VALID,0,VALID,56.055,VALID,639.919,VALID,26.5269,VALID,351,VALID,0,
2015-03-10, 10:01:04,VALID,919.434,VALID,0,VALID,55.4985,VALID,644.002,VALID,26.6616,VALID,3,VALID,0.9375,
2015-03-10, 10:02:04,VALID,919.463,VALID,0,VALID,55.59,VALID,647.655,VALID,26.859,VALID,305,VALID,1.84336,
2015-03-10, 10:03:04,VALID,919.456,VALID,0,VALID,55.8187,VALID,649.482,VALID,26.4272,VALID,307,VALID,1.51836,
2015-03-10, 10:04:04,VALID,919.469,VALID,0,VALID,59.173,VALID,651.845,VALID,26.2514,VALID,306,VALID,0.998438,
2015-03-10, 10:05:04,VALID,919.482,VALID,0,VALID,56.9393,VALID,654.639,VALID,26.2514,VALID,279,VALID,0.982031,
2015-03-10, 10:06:04,VALID,919.449,VALID,0,VALID,57.1985,VALID,656.358,VALID,26.1147,VALID,290,VALID,0.90625,
2015-03-10, 10:07:04,VALID,919.471,VALID,0,VALID,57.4882,VALID,659.474,VALID,25.9389,VALID,297,VALID,0.655078,
2015-03-10, 10:08:04,VALID,919.474,VALID,0,VALID,58.6774,VALID,662.482,VALID,25.978,VALID,307,VALID,0.662891,
2015-03-10, 10:09:04,VALID,919.474,VALID,0,VALID,59.3864,VALID,664.416,VALID,26.1147,VALID,314,VALID,0.900781,
2015-03-10, 10:10:04,VALID,919.472,VALID,0,VALID,58.6546,VALID,666.887,VALID,26.1538,VALID,261,VALID,0.808984,
2015-03-10, 10:11:04,VALID,919.47,VALID,0,VALID,58.4182,VALID,670.003,VALID,26.1713,VALID,328,VALID,0,
2015-03-10, 10:12:04,VALID,919.458,VALID,0,VALID,58.2963,VALID,672.582,VALID,26.1908,VALID,243,VALID,1.50937,
2015-03-10, 10:13:04,VALID,919.462,VALID,0,VALID,58.4335,VALID,674.516,VALID,26.1908,VALID,282,VALID,0,
2015-03-10, 10:14:04,VALID,919.467,VALID,0,VALID,56.8249,VALID,676.772,VALID,26.1928,VALID,265,VALID,1.0875,
2015-03-10, 10:15:04,VALID,919.452,VALID,0,VALID,58.3344,VALID,679.565,VALID,26.1538,VALID,245,VALID,0.571094,
2015-03-10, 10:16:04,VALID,919.451,VALID,0,VALID,56.3599,VALID,681.069,VALID,26.1753,VALID,254,VALID,0,
2015-03-10, 10:17:04,VALID,919.445,VALID,0,VALID,57.633,VALID,683.541,VALID,26.2339,VALID,259,VALID,0.566406,
2015-03-10, 10:18:04,VALID,919.487,VALID,0,VALID,57.755,VALID,686.334,VALID,26.1928,VALID,262,VALID,0,
2015-03-10, 10:19:04,VALID,919.432,VALID,0,VALID,55.9864,VALID,688.053,VALID,26.1558,VALID,191,VALID,0,
2015-03-10, 10:20:04,VALID,919.439,VALID,0,VALID,57.1604,VALID,692.566,VALID,26.312,VALID,220,VALID,0.578906,
2015-03-10, 10:21:04,VALID,919.448,VALID,0,VALID,56.7944,VALID,694.714,VALID,26.3706,VALID,259,VALID,2.78984,
2015-03-10, 10:22:04,VALID,919.452,VALID,0,VALID,57.0155,VALID,696.111,VALID,26.019,VALID,256,VALID,1.9125,
2015-03-10, 10:23:04,VALID,919.419,VALID,0,VALID,58.3344,VALID,698.367,VALID,25.8628,VALID,254,VALID,1.83672,
2015-03-10, 10:24:04,VALID,919.393,VALID,0,VALID,58.6012,VALID,701.161,VALID,25.7456,VALID,259,VALID,1.19805,
2015-03-10, 10:25:04,VALID,919.413,VALID,0,VALID,58.1209,VALID,703.847,VALID,25.8433,VALID,249,VALID,0.529297,
2015-03-10, 10:26:04,VALID,919.444,VALID,0,VALID,57.168,VALID,705.029,VALID,25.8237,VALID,250,VALID,1.22227,
2015-03-10, 10:27:04,VALID,919.432,VALID,0,VALID,56.8554,VALID,707.178,VALID,25.6675,VALID,253,VALID,1.35469,
2015-03-10, 10:28:04,VALID,919.445,VALID,0,VALID,57.6864,VALID,710.401,VALID,25.607,VALID,267,VALID,0.0195313,
2015-03-10, 10:29:04,VALID,919.463,VALID,0,VALID,60.2936,VALID,712.872,VALID,25.7651,VALID,255,VALID,0,
2015-03-10, 10:30:04,VALID,919.456,VALID,0,VALID,58.281,VALID,713.624,VALID,25.8433,VALID,258,VALID,1.93633,
2015-03-10, 10:31:04,VALID,919.472,VALID,0,VALID,58.3877,VALID,716.525,VALID,25.7827,VALID,249,VALID,1.6793,
2015-03-10, 10:32:04,VALID,919.489,VALID,0,VALID,56.9545,VALID,719.533,VALID,25.7827,VALID,239,VALID,1.39258,
2015-03-10, 10:33:04,VALID,919.496,VALID,0,VALID,54.4922,VALID,721.682,VALID,25.8999,VALID,246,VALID,1.54492,
2015-03-10, 10:34:04,VALID,919.489,VALID,0,VALID,57.4424,VALID,724.476,VALID,25.9389,VALID,261,VALID,1.15703,
2015-03-10, 10:35:04,VALID,919.5,VALID,0,VALID,55.9101,VALID,727.269,VALID,25.8804,VALID,264,VALID,1.21797,
2015-03-10, 10:36:04,VALID,919.505,VALID,0,VALID,54.5227,VALID,728.773,VALID,25.8804,VALID,247,VALID,1.61563,
2015-03-10, 10:37:04,VALID,919.483,VALID,0,VALID,56.1007,VALID,730.922,VALID,25.8198,VALID,247,VALID,1.71758,
2015-03-10, 10:38:04,VALID,919.535,VALID,0,VALID,56.2761,VALID,734.145,VALID,25.8218,VALID,257,VALID,2.37188,
2015-03-10, 10:39:04,VALID,919.529,VALID,0,VALID,56.581,VALID,735.65,VALID,25.8022,VALID,248,VALID,1.94453,
2015-03-10, 10:40:04,VALID,919.539,VALID,0,VALID,57.5568,VALID,737.154,VALID,25.9194,VALID,257,VALID,0.164453,
2015-03-10, 10:41:04,VALID,919.528,VALID,0,VALID,57.8465,VALID,737.906,VALID,26.0561,VALID,250,VALID,0.373047,
2015-03-10, 10:42:04,VALID,919.546,VALID,0,VALID,55.8034,VALID,740.27,VALID,26.2124,VALID,257,VALID,1.625,
2015-03-10, 10:43:04,VALID,919.539,VALID,0,VALID,55.0106,VALID,741.774,VALID,26.1733,VALID,247,VALID,1.96836,
2015-03-10, 10:44:04,VALID,919.535,VALID,0,VALID,53.6917,VALID,743.708,VALID,26.0757,VALID,249,VALID,2.02734,
2015-03-10, 10:45:04,VALID,919.529,VALID,0,VALID,53.646,VALID,745.964,VALID,26.0366,VALID,273,VALID,0.989062,
2015-03-10, 10:46:04,VALID,919.517,VALID,0,VALID,52.3043,VALID,748.757,VALID,26.0932,VALID,257,VALID,1.84922,
2015-03-10, 10:47:04,VALID,919.577,VALID,0,VALID,54.2482,VALID,751.336,VALID,26.0366,VALID,255,VALID,1.99805,
2015-03-10, 10:48:04,VALID,919.517,VALID,0,VALID,56.2456,VALID,753.162,VALID,26.0171,VALID,251,VALID,1.27031,
2015-03-10, 10:49:04,VALID,919.545,VALID,0,VALID,56.5048,VALID,756.493,VALID,26.1342,VALID,256,VALID,0.521094,
2015-03-10, 10:50:04,VALID,919.519,VALID,0,VALID,53.8976,VALID,757.675,VALID,26.1558,VALID,256,VALID,1.32617,
2015-03-10, 10:51:04,VALID,919.531,VALID,0,VALID,55.0029,VALID,757.675,VALID,26.1538,VALID,251,VALID,0.558984,
2015-03-10, 10:52:04,VALID,919.515,VALID,0,VALID,54.8276,VALID,761.543,VALID,26.1733,VALID,266,VALID,1.23359,
2015-03-10, 10:53:04,VALID,919.508,VALID,0,VALID,53.5392,VALID,763.799,VALID,26.2514,VALID,242,VALID,0.375391,
2015-03-10, 10:54:04,VALID,919.524,VALID,0,VALID,53.4783,VALID,764.874,VALID,26.31,VALID,264,VALID,0.0273438,
2015-03-10, 10:55:04,VALID,919.507,VALID,0,VALID,54.3245,VALID,766.593,VALID,26.4077,VALID,254,VALID,1.52734,
2015-03-10, 10:56:04,VALID,919.519,VALID,0,VALID,54.2787,VALID,768.419,VALID,26.4468,VALID,233,VALID,1.07578,